Index of /20260429/WXO-DD/model_rdps/10km/06/026
Name Last modified Size Description
Parent Directory -
20260429T06Z_MSC_RDPS_AbsoluteVorticity_IsbL-0250_RLatLon0.09_PT026H.grib2 2026-04-29 08:47 517K
20260429T06Z_MSC_RDPS_AbsoluteVorticity_IsbL-0500_RLatLon0.09_PT026H.grib2 2026-04-29 08:47 575K
20260429T06Z_MSC_RDPS_AbsoluteVorticity_IsbL-0700_RLatLon0.09_PT026H.grib2 2026-04-29 08:47 764K
20260429T06Z_MSC_RDPS_AbsoluteVorticity_IsbL-0850_RLatLon0.09_PT026H.grib2 2026-04-29 08:47 773K
20260429T06Z_MSC_RDPS_AirTemp_AGL-120m_RLatLon0.09_PT026H.grib2 2026-04-29 08:47 387K
20260429T06Z_MSC_RDPS_AirTemp_AGL-2m_RLatLon0.09_PT026H.grib2 2026-04-29 08:47 627K
20260429T06Z_MSC_RDPS_AirTemp_AGL-40m_RLatLon0.09_PT026H.grib2 2026-04-29 08:47 404K
20260429T06Z_MSC_RDPS_AirTemp_AGL-80m_RLatLon0.09_PT026H.grib2 2026-04-29 08:47 395K
20260429T06Z_MSC_RDPS_AirTemp_IsbL-0001_RLatLon0.09_PT026H.grib2 2026-04-29 08:47 254K
20260429T06Z_MSC_RDPS_AirTemp_IsbL-0005_RLatLon0.09_PT026H.grib2 2026-04-29 08:47 294K
20260429T06Z_MSC_RDPS_AirTemp_IsbL-0010_RLatLon0.09_PT026H.grib2 2026-04-29 08:47 304K
20260429T06Z_MSC_RDPS_AirTemp_IsbL-0020_RLatLon0.09_PT026H.grib2 2026-04-29 08:47 315K
20260429T06Z_MSC_RDPS_AirTemp_IsbL-0030_RLatLon0.09_PT026H.grib2 2026-04-29 08:47 340K
20260429T06Z_MSC_RDPS_AirTemp_IsbL-0050_RLatLon0.09_PT026H.grib2 2026-04-29 08:47 315K
20260429T06Z_MSC_RDPS_AirTemp_IsbL-0100_RLatLon0.09_PT026H.grib2 2026-04-29 08:47 430K
20260429T06Z_MSC_RDPS_AirTemp_IsbL-0150_RLatLon0.09_PT026H.grib2 2026-04-29 08:47 428K
20260429T06Z_MSC_RDPS_AirTemp_IsbL-0175_RLatLon0.09_PT026H.grib2 2026-04-29 08:47 416K
20260429T06Z_MSC_RDPS_AirTemp_IsbL-0200_RLatLon0.09_PT026H.grib2 2026-04-29 08:47 419K
20260429T06Z_MSC_RDPS_AirTemp_IsbL-0225_RLatLon0.09_PT026H.grib2 2026-04-29 08:47 420K
20260429T06Z_MSC_RDPS_AirTemp_IsbL-0250_RLatLon0.09_PT026H.grib2 2026-04-29 08:47 432K
20260429T06Z_MSC_RDPS_AirTemp_IsbL-0275_RLatLon0.09_PT026H.grib2 2026-04-29 08:47 410K
20260429T06Z_MSC_RDPS_AirTemp_IsbL-0300_RLatLon0.09_PT026H.grib2 2026-04-29 08:47 415K
20260429T06Z_MSC_RDPS_AirTemp_IsbL-0350_RLatLon0.09_PT026H.grib2 2026-04-29 08:47 427K
20260429T06Z_MSC_RDPS_AirTemp_IsbL-0400_RLatLon0.09_PT026H.grib2 2026-04-29 08:47 427K
20260429T06Z_MSC_RDPS_AirTemp_IsbL-0450_RLatLon0.09_PT026H.grib2 2026-04-29 08:47 434K
20260429T06Z_MSC_RDPS_AirTemp_IsbL-0500_RLatLon0.09_PT026H.grib2 2026-04-29 08:47 410K
20260429T06Z_MSC_RDPS_AirTemp_IsbL-0550_RLatLon0.09_PT026H.grib2 2026-04-29 08:47 426K
20260429T06Z_MSC_RDPS_AirTemp_IsbL-0600_RLatLon0.09_PT026H.grib2 2026-04-29 08:47 448K
20260429T06Z_MSC_RDPS_AirTemp_IsbL-0650_RLatLon0.09_PT026H.grib2 2026-04-29 08:47 463K
20260429T06Z_MSC_RDPS_AirTemp_IsbL-0700_RLatLon0.09_PT026H.grib2 2026-04-29 08:47 377K
20260429T06Z_MSC_RDPS_AirTemp_IsbL-0750_RLatLon0.09_PT026H.grib2 2026-04-29 08:47 408K
20260429T06Z_MSC_RDPS_AirTemp_IsbL-0800_RLatLon0.09_PT026H.grib2 2026-04-29 08:47 448K
20260429T06Z_MSC_RDPS_AirTemp_IsbL-0850_RLatLon0.09_PT026H.grib2 2026-04-29 08:47 498K
20260429T06Z_MSC_RDPS_AirTemp_IsbL-0875_RLatLon0.09_PT026H.grib2 2026-04-29 08:47 517K
20260429T06Z_MSC_RDPS_AirTemp_IsbL-0900_RLatLon0.09_PT026H.grib2 2026-04-29 08:47 525K
20260429T06Z_MSC_RDPS_AirTemp_IsbL-0925_RLatLon0.09_PT026H.grib2 2026-04-29 08:47 522K
20260429T06Z_MSC_RDPS_AirTemp_IsbL-0950_RLatLon0.09_PT026H.grib2 2026-04-29 08:47 524K
20260429T06Z_MSC_RDPS_AirTemp_IsbL-0970_RLatLon0.09_PT026H.grib2 2026-04-29 08:47 515K
20260429T06Z_MSC_RDPS_AirTemp_IsbL-0985_RLatLon0.09_PT026H.grib2 2026-04-29 08:47 500K
20260429T06Z_MSC_RDPS_AirTemp_IsbL-1000_RLatLon0.09_PT026H.grib2 2026-04-29 08:47 483K
20260429T06Z_MSC_RDPS_AirTemp_IsbL-1015_RLatLon0.09_PT026H.grib2 2026-04-29 08:47 482K
20260429T06Z_MSC_RDPS_Albedo_Sfc_RLatLon0.09_PT026H.grib2 2026-04-29 08:47 161K
20260429T06Z_MSC_RDPS_CAPE_Sfc_RLatLon0.09_PT026H.grib2 2026-04-29 08:47 1.5M
20260429T06Z_MSC_RDPS_CIN_Sfc_RLatLon0.09_PT026H.grib2 2026-04-29 08:47 1.1M
20260429T06Z_MSC_RDPS_CloudWater_EAtm_RLatLon0.09_PT026H.grib2 2026-04-29 08:47 218K
20260429T06Z_MSC_RDPS_ConvectivePrecip-Accum_Sfc_RLatLon0.09_PT026H.grib2 2026-04-29 08:47 801K
20260429T06Z_MSC_RDPS_DewPointDepression_AGL-2m_RLatLon0.09_PT026H.grib2 2026-04-29 08:47 391K
20260429T06Z_MSC_RDPS_DewPointDepression_IsbL-0001_RLatLon0.09_PT026H.grib2 2026-04-29 08:47 193
20260429T06Z_MSC_RDPS_DewPointDepression_IsbL-0005_RLatLon0.09_PT026H.grib2 2026-04-29 08:47 193
20260429T06Z_MSC_RDPS_DewPointDepression_IsbL-0010_RLatLon0.09_PT026H.grib2 2026-04-29 08:47 193
20260429T06Z_MSC_RDPS_DewPointDepression_IsbL-0020_RLatLon0.09_PT026H.grib2 2026-04-29 08:47 193
20260429T06Z_MSC_RDPS_DewPointDepression_IsbL-0030_RLatLon0.09_PT026H.grib2 2026-04-29 08:47 193
20260429T06Z_MSC_RDPS_DewPointDepression_IsbL-0050_RLatLon0.09_PT026H.grib2 2026-04-29 08:47 84K
20260429T06Z_MSC_RDPS_DewPointDepression_IsbL-0100_RLatLon0.09_PT026H.grib2 2026-04-29 08:47 131K
20260429T06Z_MSC_RDPS_DewPointDepression_IsbL-0150_RLatLon0.09_PT026H.grib2 2026-04-29 08:47 149K
20260429T06Z_MSC_RDPS_DewPointDepression_IsbL-0175_RLatLon0.09_PT026H.grib2 2026-04-29 08:47 179K
20260429T06Z_MSC_RDPS_DewPointDepression_IsbL-0200_RLatLon0.09_PT026H.grib2 2026-04-29 08:47 217K
20260429T06Z_MSC_RDPS_DewPointDepression_IsbL-0225_RLatLon0.09_PT026H.grib2 2026-04-29 08:47 265K
20260429T06Z_MSC_RDPS_DewPointDepression_IsbL-0250_RLatLon0.09_PT026H.grib2 2026-04-29 08:47 305K
20260429T06Z_MSC_RDPS_DewPointDepression_IsbL-0275_RLatLon0.09_PT026H.grib2 2026-04-29 08:47 309K
20260429T06Z_MSC_RDPS_DewPointDepression_IsbL-0300_RLatLon0.09_PT026H.grib2 2026-04-29 08:47 330K
20260429T06Z_MSC_RDPS_DewPointDepression_IsbL-0350_RLatLon0.09_PT026H.grib2 2026-04-29 08:47 332K
20260429T06Z_MSC_RDPS_DewPointDepression_IsbL-0400_RLatLon0.09_PT026H.grib2 2026-04-29 08:47 337K
20260429T06Z_MSC_RDPS_DewPointDepression_IsbL-0450_RLatLon0.09_PT026H.grib2 2026-04-29 08:47 344K
20260429T06Z_MSC_RDPS_DewPointDepression_IsbL-0500_RLatLon0.09_PT026H.grib2 2026-04-29 08:47 351K
20260429T06Z_MSC_RDPS_DewPointDepression_IsbL-0550_RLatLon0.09_PT026H.grib2 2026-04-29 08:47 362K
20260429T06Z_MSC_RDPS_DewPointDepression_IsbL-0600_RLatLon0.09_PT026H.grib2 2026-04-29 08:47 375K
20260429T06Z_MSC_RDPS_DewPointDepression_IsbL-0650_RLatLon0.09_PT026H.grib2 2026-04-29 08:47 385K
20260429T06Z_MSC_RDPS_DewPointDepression_IsbL-0700_RLatLon0.09_PT026H.grib2 2026-04-29 08:47 394K
20260429T06Z_MSC_RDPS_DewPointDepression_IsbL-0750_RLatLon0.09_PT026H.grib2 2026-04-29 08:47 411K
20260429T06Z_MSC_RDPS_DewPointDepression_IsbL-0800_RLatLon0.09_PT026H.grib2 2026-04-29 08:47 434K
20260429T06Z_MSC_RDPS_DewPointDepression_IsbL-0850_RLatLon0.09_PT026H.grib2 2026-04-29 08:47 463K
20260429T06Z_MSC_RDPS_DewPointDepression_IsbL-0875_RLatLon0.09_PT026H.grib2 2026-04-29 08:47 467K
20260429T06Z_MSC_RDPS_DewPointDepression_IsbL-0900_RLatLon0.09_PT026H.grib2 2026-04-29 08:47 459K
20260429T06Z_MSC_RDPS_DewPointDepression_IsbL-0925_RLatLon0.09_PT026H.grib2 2026-04-29 08:47 446K
20260429T06Z_MSC_RDPS_DewPointDepression_IsbL-0950_RLatLon0.09_PT026H.grib2 2026-04-29 08:47 442K
20260429T06Z_MSC_RDPS_DewPointDepression_IsbL-0970_RLatLon0.09_PT026H.grib2 2026-04-29 08:47 433K
20260429T06Z_MSC_RDPS_DewPointDepression_IsbL-0985_RLatLon0.09_PT026H.grib2 2026-04-29 08:47 424K
20260429T06Z_MSC_RDPS_DewPointDepression_IsbL-1000_RLatLon0.09_PT026H.grib2 2026-04-29 08:47 418K
20260429T06Z_MSC_RDPS_DewPointDepression_IsbL-1015_RLatLon0.09_PT026H.grib2 2026-04-29 08:47 409K
20260429T06Z_MSC_RDPS_DewPoint_AGL-2m_RLatLon0.09_PT026H.grib2 2026-04-29 08:47 306K
20260429T06Z_MSC_RDPS_DownwardLongwaveRadiationFlux-Accum_Sfc_RLatLon0.09_PT026H.grib2 2026-04-29 08:47 437K
20260429T06Z_MSC_RDPS_DownwardShortwaveRadiationFlux-Accum_NTAtm_RLatLon0.09_PT026H.grib2 2026-04-29 08:47 124K
20260429T06Z_MSC_RDPS_DownwardShortwaveRadiationFlux-Accum_Sfc_RLatLon0.09_PT026H.grib2 2026-04-29 08:47 630K
20260429T06Z_MSC_RDPS_FreezingRain-Accum1h_Sfc_RLatLon0.09_PT026H.grib2 2026-04-29 08:47 35K
20260429T06Z_MSC_RDPS_FreezingRain-Accum_Sfc_RLatLon0.09_PT026H.grib2 2026-04-29 08:47 118K
20260429T06Z_MSC_RDPS_GeopotentialHeight_IsbL-0001_RLatLon0.09_PT026H.grib2 2026-04-29 08:47 237K
20260429T06Z_MSC_RDPS_GeopotentialHeight_IsbL-0005_RLatLon0.09_PT026H.grib2 2026-04-29 08:47 335K
20260429T06Z_MSC_RDPS_GeopotentialHeight_IsbL-0010_RLatLon0.09_PT026H.grib2 2026-04-29 08:47 304K
20260429T06Z_MSC_RDPS_GeopotentialHeight_IsbL-0020_RLatLon0.09_PT026H.grib2 2026-04-29 08:47 303K
20260429T06Z_MSC_RDPS_GeopotentialHeight_IsbL-0030_RLatLon0.09_PT026H.grib2 2026-04-29 08:47 304K
20260429T06Z_MSC_RDPS_GeopotentialHeight_IsbL-0050_RLatLon0.09_PT026H.grib2 2026-04-29 08:47 339K
20260429T06Z_MSC_RDPS_GeopotentialHeight_IsbL-0100_RLatLon0.09_PT026H.grib2 2026-04-29 08:47 284K
20260429T06Z_MSC_RDPS_GeopotentialHeight_IsbL-0150_RLatLon0.09_PT026H.grib2 2026-04-29 08:47 228K
20260429T06Z_MSC_RDPS_GeopotentialHeight_IsbL-0175_RLatLon0.09_PT026H.grib2 2026-04-29 08:47 261K
20260429T06Z_MSC_RDPS_GeopotentialHeight_IsbL-0200_RLatLon0.09_PT026H.grib2 2026-04-29 08:47 263K
20260429T06Z_MSC_RDPS_GeopotentialHeight_IsbL-0225_RLatLon0.09_PT026H.grib2 2026-04-29 08:47 265K
20260429T06Z_MSC_RDPS_GeopotentialHeight_IsbL-0250_RLatLon0.09_PT026H.grib2 2026-04-29 08:47 267K
20260429T06Z_MSC_RDPS_GeopotentialHeight_IsbL-0275_RLatLon0.09_PT026H.grib2 2026-04-29 08:47 265K
20260429T06Z_MSC_RDPS_GeopotentialHeight_IsbL-0300_RLatLon0.09_PT026H.grib2 2026-04-29 08:47 265K
20260429T06Z_MSC_RDPS_GeopotentialHeight_IsbL-0350_RLatLon0.09_PT026H.grib2 2026-04-29 08:47 231K
20260429T06Z_MSC_RDPS_GeopotentialHeight_IsbL-0400_RLatLon0.09_PT026H.grib2 2026-04-29 08:47 228K
20260429T06Z_MSC_RDPS_GeopotentialHeight_IsbL-0450_RLatLon0.09_PT026H.grib2 2026-04-29 08:47 295K
20260429T06Z_MSC_RDPS_GeopotentialHeight_IsbL-0500_RLatLon0.09_PT026H.grib2 2026-04-29 08:47 290K
20260429T06Z_MSC_RDPS_GeopotentialHeight_IsbL-0550_RLatLon0.09_PT026H.grib2 2026-04-29 08:47 286K
20260429T06Z_MSC_RDPS_GeopotentialHeight_IsbL-0600_RLatLon0.09_PT026H.grib2 2026-04-29 08:47 283K
20260429T06Z_MSC_RDPS_GeopotentialHeight_IsbL-0650_RLatLon0.09_PT026H.grib2 2026-04-29 08:47 252K
20260429T06Z_MSC_RDPS_GeopotentialHeight_IsbL-0700_RLatLon0.09_PT026H.grib2 2026-04-29 08:47 332K
20260429T06Z_MSC_RDPS_GeopotentialHeight_IsbL-0750_RLatLon0.09_PT026H.grib2 2026-04-29 08:47 335K
20260429T06Z_MSC_RDPS_GeopotentialHeight_IsbL-0800_RLatLon0.09_PT026H.grib2 2026-04-29 08:47 342K
20260429T06Z_MSC_RDPS_GeopotentialHeight_IsbL-0850_RLatLon0.09_PT026H.grib2 2026-04-29 08:47 384K
20260429T06Z_MSC_RDPS_GeopotentialHeight_IsbL-0875_RLatLon0.09_PT026H.grib2 2026-04-29 08:47 388K
20260429T06Z_MSC_RDPS_GeopotentialHeight_IsbL-0900_RLatLon0.09_PT026H.grib2 2026-04-29 08:47 392K
20260429T06Z_MSC_RDPS_GeopotentialHeight_IsbL-0925_RLatLon0.09_PT026H.grib2 2026-04-29 08:47 395K
20260429T06Z_MSC_RDPS_GeopotentialHeight_IsbL-0950_RLatLon0.09_PT026H.grib2 2026-04-29 08:47 399K
20260429T06Z_MSC_RDPS_GeopotentialHeight_IsbL-0970_RLatLon0.09_PT026H.grib2 2026-04-29 08:47 405K
20260429T06Z_MSC_RDPS_GeopotentialHeight_IsbL-0985_RLatLon0.09_PT026H.grib2 2026-04-29 08:47 413K
20260429T06Z_MSC_RDPS_GeopotentialHeight_IsbL-1000_RLatLon0.09_PT026H.grib2 2026-04-29 08:47 425K
20260429T06Z_MSC_RDPS_GeopotentialHeight_IsbL-1015_RLatLon0.09_PT026H.grib2 2026-04-29 08:47 440K
20260429T06Z_MSC_RDPS_Humidex_Sfc_RLatLon0.09_PT026H.grib2 2026-04-29 08:47 2.4M
20260429T06Z_MSC_RDPS_IcePellets-Accum1h_Sfc_RLatLon0.09_PT026H.grib2 2026-04-29 08:47 2.2K
20260429T06Z_MSC_RDPS_IcePellets-Accum_Sfc_RLatLon0.09_PT026H.grib2 2026-04-29 08:47 15K
20260429T06Z_MSC_RDPS_KIndex_Sfc_RLatLon0.09_PT026H.grib2 2026-04-29 08:47 2.4M
20260429T06Z_MSC_RDPS_LatentHeatNetFlux_Sfc_RLatLon0.09_PT026H.grib2 2026-04-29 08:47 304K
20260429T06Z_MSC_RDPS_LiftedIndex-MU-VT_IsbL-0500_RLatLon0.09_PT026H.grib2 2026-04-29 08:47 2.4M
20260429T06Z_MSC_RDPS_NetLongwaveRadiationFlux-Accum_Sfc_RLatLon0.09_PT026H.grib2 2026-04-29 08:47 583K
20260429T06Z_MSC_RDPS_NetShortwaveRadiationFlux-Accum_Sfc_RLatLon0.09_PT026H.grib2 2026-04-29 08:47 630K
20260429T06Z_MSC_RDPS_PlanetaryBoundaryLayerHeight_Sfc_RLatLon0.09_PT026H.grib2 2026-04-29 08:47 1.1M
20260429T06Z_MSC_RDPS_Precip-Accum1h_Sfc_RLatLon0.09_PT026H.grib2 2026-04-29 08:47 1.2M
20260429T06Z_MSC_RDPS_Precip-Accum_Sfc_RLatLon0.09_PT026H.grib2 2026-04-29 08:47 1.8M
20260429T06Z_MSC_RDPS_PrecipRate_Sfc_RLatLon0.09_PT026H.grib2 2026-04-29 08:47 168K
20260429T06Z_MSC_RDPS_PrecipType-Instant_Sfc_RLatLon0.09_PT026H.grib2 2026-04-29 08:47 551K
20260429T06Z_MSC_RDPS_Pressure-Trend3h_Sfc_RLatLon0.09_PT026H.grib2 2026-04-29 08:47 1.2M
20260429T06Z_MSC_RDPS_Pressure_MSL_RLatLon0.09_PT026H.grib2 2026-04-29 08:47 290K
20260429T06Z_MSC_RDPS_Pressure_PVU-1.5_RLatLon0.09_PT026H.grib2 2026-04-29 08:47 2.3M
20260429T06Z_MSC_RDPS_Pressure_PVU-1_RLatLon0.09_PT026H.grib2 2026-04-29 08:47 2.4M
20260429T06Z_MSC_RDPS_Pressure_PVU-2_RLatLon0.09_PT026H.grib2 2026-04-29 08:47 2.4M
20260429T06Z_MSC_RDPS_Pressure_Sfc_RLatLon0.09_PT026H.grib2 2026-04-29 08:47 500K
20260429T06Z_MSC_RDPS_RadiativeTemp_Sfc_RLatLon0.09_PT026H.grib2 2026-04-29 08:47 302K
20260429T06Z_MSC_RDPS_Rain-Accum1h_Sfc_RLatLon0.09_PT026H.grib2 2026-04-29 08:47 560K
20260429T06Z_MSC_RDPS_Rain-Accum_Sfc_RLatLon0.09_PT026H.grib2 2026-04-29 08:47 1.3M
20260429T06Z_MSC_RDPS_RelativeHumidity_AGL-2m_RLatLon0.09_PT026H.grib2 2026-04-29 08:47 1.0M
20260429T06Z_MSC_RDPS_RelativeHumidity_IsbL-0010_RLatLon0.09_PT026H.grib2 2026-04-29 08:47 643K
20260429T06Z_MSC_RDPS_RelativeHumidity_IsbL-0020_RLatLon0.09_PT026H.grib2 2026-04-29 08:47 686K
20260429T06Z_MSC_RDPS_RelativeHumidity_IsbL-0030_RLatLon0.09_PT026H.grib2 2026-04-29 08:47 606K
20260429T06Z_MSC_RDPS_RelativeHumidity_IsbL-0050_RLatLon0.09_PT026H.grib2 2026-04-29 08:47 370K
20260429T06Z_MSC_RDPS_RelativeHumidity_IsbL-0100_RLatLon0.09_PT026H.grib2 2026-04-29 08:47 286K
20260429T06Z_MSC_RDPS_RelativeHumidity_IsbL-0150_RLatLon0.09_PT026H.grib2 2026-04-29 08:47 410K
20260429T06Z_MSC_RDPS_RelativeHumidity_IsbL-0175_RLatLon0.09_PT026H.grib2 2026-04-29 08:47 478K
20260429T06Z_MSC_RDPS_RelativeHumidity_IsbL-0200_RLatLon0.09_PT026H.grib2 2026-04-29 08:47 554K
20260429T06Z_MSC_RDPS_RelativeHumidity_IsbL-0225_RLatLon0.09_PT026H.grib2 2026-04-29 08:47 628K
20260429T06Z_MSC_RDPS_RelativeHumidity_IsbL-0250_RLatLon0.09_PT026H.grib2 2026-04-29 08:47 705K
20260429T06Z_MSC_RDPS_RelativeHumidity_IsbL-0275_RLatLon0.09_PT026H.grib2 2026-04-29 08:47 731K
20260429T06Z_MSC_RDPS_RelativeHumidity_IsbL-0300_RLatLon0.09_PT026H.grib2 2026-04-29 08:47 777K
20260429T06Z_MSC_RDPS_RelativeHumidity_IsbL-0350_RLatLon0.09_PT026H.grib2 2026-04-29 08:47 791K
20260429T06Z_MSC_RDPS_RelativeHumidity_IsbL-0400_RLatLon0.09_PT026H.grib2 2026-04-29 08:47 796K
20260429T06Z_MSC_RDPS_RelativeHumidity_IsbL-0450_RLatLon0.09_PT026H.grib2 2026-04-29 08:47 802K
20260429T06Z_MSC_RDPS_RelativeHumidity_IsbL-0500_RLatLon0.09_PT026H.grib2 2026-04-29 08:47 808K
20260429T06Z_MSC_RDPS_RelativeHumidity_IsbL-0550_RLatLon0.09_PT026H.grib2 2026-04-29 08:47 824K
20260429T06Z_MSC_RDPS_RelativeHumidity_IsbL-0600_RLatLon0.09_PT026H.grib2 2026-04-29 08:47 846K
20260429T06Z_MSC_RDPS_RelativeHumidity_IsbL-0650_RLatLon0.09_PT026H.grib2 2026-04-29 08:47 862K
20260429T06Z_MSC_RDPS_RelativeHumidity_IsbL-0700_RLatLon0.09_PT026H.grib2 2026-04-29 08:47 884K
20260429T06Z_MSC_RDPS_RelativeHumidity_IsbL-0750_RLatLon0.09_PT026H.grib2 2026-04-29 08:47 930K
20260429T06Z_MSC_RDPS_RelativeHumidity_IsbL-0800_RLatLon0.09_PT026H.grib2 2026-04-29 08:47 1.0M
20260429T06Z_MSC_RDPS_RelativeHumidity_IsbL-0850_RLatLon0.09_PT026H.grib2 2026-04-29 08:47 1.0M
20260429T06Z_MSC_RDPS_RelativeHumidity_IsbL-0875_RLatLon0.09_PT026H.grib2 2026-04-29 08:47 1.0M
20260429T06Z_MSC_RDPS_RelativeHumidity_IsbL-0900_RLatLon0.09_PT026H.grib2 2026-04-29 08:47 1.1M
20260429T06Z_MSC_RDPS_RelativeHumidity_IsbL-0925_RLatLon0.09_PT026H.grib2 2026-04-29 08:47 1.1M
20260429T06Z_MSC_RDPS_RelativeHumidity_IsbL-0950_RLatLon0.09_PT026H.grib2 2026-04-29 08:47 1.1M
20260429T06Z_MSC_RDPS_RelativeHumidity_IsbL-0970_RLatLon0.09_PT026H.grib2 2026-04-29 08:47 1.0M
20260429T06Z_MSC_RDPS_RelativeHumidity_IsbL-0985_RLatLon0.09_PT026H.grib2 2026-04-29 08:47 1.0M
20260429T06Z_MSC_RDPS_RelativeHumidity_IsbL-1000_RLatLon0.09_PT026H.grib2 2026-04-29 08:47 1.0M
20260429T06Z_MSC_RDPS_RelativeHumidity_IsbL-1015_RLatLon0.09_PT026H.grib2 2026-04-29 08:47 1.0M
20260429T06Z_MSC_RDPS_Runoff-Accum_Sfc_RLatLon0.09_PT026H.grib2 2026-04-29 08:47 50K
20260429T06Z_MSC_RDPS_SWEATIndex_Sfc_RLatLon0.09_PT026H.grib2 2026-04-29 08:47 2.4M
20260429T06Z_MSC_RDPS_SeeingIndex_EAtm_RLatLon0.09_PT026H.grib2 2026-04-29 08:47 1.0M
20260429T06Z_MSC_RDPS_SensibleHeatNetFlux_Sfc_RLatLon0.09_PT026H.grib2 2026-04-29 08:47 285K
20260429T06Z_MSC_RDPS_ShowalterIndex_IsbL-0500_RLatLon0.09_PT026H.grib2 2026-04-29 08:47 2.6M
20260429T06Z_MSC_RDPS_SkyTransparencyIndex_EAtm_RLatLon0.09_PT026H.grib2 2026-04-29 08:47 678K
20260429T06Z_MSC_RDPS_Snow-Accum1h_Sfc_RLatLon0.09_PT026H.grib2 2026-04-29 08:47 373K
20260429T06Z_MSC_RDPS_Snow-Accum_Sfc_RLatLon0.09_PT026H.grib2 2026-04-29 08:47 713K
20260429T06Z_MSC_RDPS_SnowDensity_Sfc_RLatLon0.09_PT026H.grib2 2026-04-29 08:47 176K
20260429T06Z_MSC_RDPS_SnowDepth_Sfc_RLatLon0.09_PT026H.grib2 2026-04-29 08:47 684K
20260429T06Z_MSC_RDPS_SoilTemp_DBS-0to10cm_RLatLon0.09_PT026H.grib2 2026-04-29 08:47 223K
20260429T06Z_MSC_RDPS_SoilTemp_Sfc_RLatLon0.09_PT026H.grib2 2026-04-29 08:47 264K
20260429T06Z_MSC_RDPS_SoilVolumetricIceContent_Sfc_RLatLon0.09_PT026H.grib2 2026-04-29 08:47 164K
20260429T06Z_MSC_RDPS_SoilVolumetricWaterContent_DBS-0to10cm_RLatLon0.09_PT026H.grib2 2026-04-29 08:47 266K
20260429T06Z_MSC_RDPS_SoilVolumetricWaterContent_DBS-0to1cm_RLatLon0.09_PT026H.grib2 2026-04-29 08:47 334K
20260429T06Z_MSC_RDPS_SpecificHumidity_AGL-120m_RLatLon0.09_PT026H.grib2 2026-04-29 08:47 483K
20260429T06Z_MSC_RDPS_SpecificHumidity_AGL-2m_RLatLon0.09_PT026H.grib2 2026-04-29 08:47 645K
20260429T06Z_MSC_RDPS_SpecificHumidity_AGL-40m_RLatLon0.09_PT026H.grib2 2026-04-29 08:47 487K
20260429T06Z_MSC_RDPS_SpecificHumidity_AGL-80m_RLatLon0.09_PT026H.grib2 2026-04-29 08:47 484K
20260429T06Z_MSC_RDPS_SpecificHumidity_IsbL-0001_RLatLon0.09_PT026H.grib2 2026-04-29 08:47 338K
20260429T06Z_MSC_RDPS_SpecificHumidity_IsbL-0005_RLatLon0.09_PT026H.grib2 2026-04-29 08:47 361K
20260429T06Z_MSC_RDPS_SpecificHumidity_IsbL-0010_RLatLon0.09_PT026H.grib2 2026-04-29 08:47 399K
20260429T06Z_MSC_RDPS_SpecificHumidity_IsbL-0020_RLatLon0.09_PT026H.grib2 2026-04-29 08:47 389K
20260429T06Z_MSC_RDPS_SpecificHumidity_IsbL-0030_RLatLon0.09_PT026H.grib2 2026-04-29 08:47 371K
20260429T06Z_MSC_RDPS_SpecificHumidity_IsbL-0050_RLatLon0.09_PT026H.grib2 2026-04-29 08:47 462K
20260429T06Z_MSC_RDPS_SpecificHumidity_IsbL-0100_RLatLon0.09_PT026H.grib2 2026-04-29 08:47 355K
20260429T06Z_MSC_RDPS_SpecificHumidity_IsbL-0150_RLatLon0.09_PT026H.grib2 2026-04-29 08:47 456K
20260429T06Z_MSC_RDPS_SpecificHumidity_IsbL-0175_RLatLon0.09_PT026H.grib2 2026-04-29 08:47 538K
20260429T06Z_MSC_RDPS_SpecificHumidity_IsbL-0200_RLatLon0.09_PT026H.grib2 2026-04-29 08:47 449K
20260429T06Z_MSC_RDPS_SpecificHumidity_IsbL-0225_RLatLon0.09_PT026H.grib2 2026-04-29 08:47 457K
20260429T06Z_MSC_RDPS_SpecificHumidity_IsbL-0250_RLatLon0.09_PT026H.grib2 2026-04-29 08:47 566K
20260429T06Z_MSC_RDPS_SpecificHumidity_IsbL-0275_RLatLon0.09_PT026H.grib2 2026-04-29 08:47 479K
20260429T06Z_MSC_RDPS_SpecificHumidity_IsbL-0300_RLatLon0.09_PT026H.grib2 2026-04-29 08:47 555K
20260429T06Z_MSC_RDPS_SpecificHumidity_IsbL-0350_RLatLon0.09_PT026H.grib2 2026-04-29 08:47 543K
20260429T06Z_MSC_RDPS_SpecificHumidity_IsbL-0400_RLatLon0.09_PT026H.grib2 2026-04-29 08:47 520K
20260429T06Z_MSC_RDPS_SpecificHumidity_IsbL-0450_RLatLon0.09_PT026H.grib2 2026-04-29 08:47 572K
20260429T06Z_MSC_RDPS_SpecificHumidity_IsbL-0500_RLatLon0.09_PT026H.grib2 2026-04-29 08:47 510K
20260429T06Z_MSC_RDPS_SpecificHumidity_IsbL-0550_RLatLon0.09_PT026H.grib2 2026-04-29 08:47 566K
20260429T06Z_MSC_RDPS_SpecificHumidity_IsbL-0600_RLatLon0.09_PT026H.grib2 2026-04-29 08:47 637K
20260429T06Z_MSC_RDPS_SpecificHumidity_IsbL-0650_RLatLon0.09_PT026H.grib2 2026-04-29 08:47 558K
20260429T06Z_MSC_RDPS_SpecificHumidity_IsbL-0700_RLatLon0.09_PT026H.grib2 2026-04-29 08:47 598K
20260429T06Z_MSC_RDPS_SpecificHumidity_IsbL-0750_RLatLon0.09_PT026H.grib2 2026-04-29 08:47 649K
20260429T06Z_MSC_RDPS_SpecificHumidity_IsbL-0800_RLatLon0.09_PT026H.grib2 2026-04-29 08:47 719K
20260429T06Z_MSC_RDPS_SpecificHumidity_IsbL-0850_RLatLon0.09_PT026H.grib2 2026-04-29 08:47 789K
20260429T06Z_MSC_RDPS_SpecificHumidity_IsbL-0875_RLatLon0.09_PT026H.grib2 2026-04-29 08:47 816K
20260429T06Z_MSC_RDPS_SpecificHumidity_IsbL-0900_RLatLon0.09_PT026H.grib2 2026-04-29 08:47 831K
20260429T06Z_MSC_RDPS_SpecificHumidity_IsbL-0925_RLatLon0.09_PT026H.grib2 2026-04-29 08:47 832K
20260429T06Z_MSC_RDPS_SpecificHumidity_IsbL-0950_RLatLon0.09_PT026H.grib2 2026-04-29 08:47 835K
20260429T06Z_MSC_RDPS_SpecificHumidity_IsbL-0970_RLatLon0.09_PT026H.grib2 2026-04-29 08:47 825K
20260429T06Z_MSC_RDPS_SpecificHumidity_IsbL-0985_RLatLon0.09_PT026H.grib2 2026-04-29 08:47 812K
20260429T06Z_MSC_RDPS_SpecificHumidity_IsbL-1000_RLatLon0.09_PT026H.grib2 2026-04-29 08:47 663K
20260429T06Z_MSC_RDPS_SpecificHumidity_IsbL-1015_RLatLon0.09_PT026H.grib2 2026-04-29 08:47 654K
20260429T06Z_MSC_RDPS_SpecificHumidity_Sfc_RLatLon0.09_PT026H.grib2 2026-04-29 08:47 290K
20260429T06Z_MSC_RDPS_StormRelativeHelicity_EtaL-10000_RLatLon0.09_PT026H.grib2 2026-04-29 08:47 1.1M
20260429T06Z_MSC_RDPS_StormSeverityIndex_EtaL-10000_RLatLon0.09_PT026H.grib2 2026-04-29 08:47 1.2M
20260429T06Z_MSC_RDPS_Thickness_IsbL-0850to0700_RLatLon0.09_PT026H.grib2 2026-04-29 08:47 178K
20260429T06Z_MSC_RDPS_Thickness_IsbL-1000to0500_RLatLon0.09_PT026H.grib2 2026-04-29 08:47 198K
20260429T06Z_MSC_RDPS_Thickness_IsbL-1000to0850_RLatLon0.09_PT026H.grib2 2026-04-29 08:47 259K
20260429T06Z_MSC_RDPS_TotalCloudCover_Sfc_RLatLon0.09_PT026H.grib2 2026-04-29 08:47 655K
20260429T06Z_MSC_RDPS_TotalTotalsIndex_Sfc_RLatLon0.09_PT026H.grib2 2026-04-29 08:47 2.3M
20260429T06Z_MSC_RDPS_UVIndex-ClearSky_Sfc_RLatLon0.09_PT026H.grib2 2026-04-29 08:47 90K
20260429T06Z_MSC_RDPS_UVIndex_Sfc_RLatLon0.09_PT026H.grib2 2026-04-29 08:47 162K
20260429T06Z_MSC_RDPS_UpwardLongwaveRadiationFlux_NTAtm_RLatLon0.09_PT026H.grib2 2026-04-29 08:47 490K
20260429T06Z_MSC_RDPS_UpwardShortwaveRadiationFlux_NTAtm_RLatLon0.09_PT026H.grib2 2026-04-29 08:47 139K
20260429T06Z_MSC_RDPS_VerticalVelocity_IsbL-0250_RLatLon0.09_PT026H.grib2 2026-04-29 08:47 560K
20260429T06Z_MSC_RDPS_VerticalVelocity_IsbL-0500_RLatLon0.09_PT026H.grib2 2026-04-29 08:47 543K
20260429T06Z_MSC_RDPS_VerticalVelocity_IsbL-0700_RLatLon0.09_PT026H.grib2 2026-04-29 08:47 587K
20260429T06Z_MSC_RDPS_VerticalVelocity_IsbL-0850_RLatLon0.09_PT026H.grib2 2026-04-29 08:47 681K
20260429T06Z_MSC_RDPS_VerticalWindShear_EtaL-6500_RLatLon0.09_PT026H.grib2 2026-04-29 08:47 1.2M
20260429T06Z_MSC_RDPS_WindChill_Sfc_RLatLon0.09_PT026H.grib2 2026-04-29 08:47 1.1M
20260429T06Z_MSC_RDPS_WindDir_AGL-10m_RLatLon0.09_PT026H.grib2 2026-04-29 08:47 1.0M
20260429T06Z_MSC_RDPS_WindDir_AGL-120m_RLatLon0.09_PT026H.grib2 2026-04-29 08:47 612K
20260429T06Z_MSC_RDPS_WindDir_AGL-40m_RLatLon0.09_PT026H.grib2 2026-04-29 08:47 642K
20260429T06Z_MSC_RDPS_WindDir_AGL-80m_RLatLon0.09_PT026H.grib2 2026-04-29 08:47 623K
20260429T06Z_MSC_RDPS_WindDir_IsbL-0001_RLatLon0.09_PT026H.grib2 2026-04-29 08:47 309K
20260429T06Z_MSC_RDPS_WindDir_IsbL-0005_RLatLon0.09_PT026H.grib2 2026-04-29 08:47 360K
20260429T06Z_MSC_RDPS_WindDir_IsbL-0010_RLatLon0.09_PT026H.grib2 2026-04-29 08:47 377K
20260429T06Z_MSC_RDPS_WindDir_IsbL-0020_RLatLon0.09_PT026H.grib2 2026-04-29 08:47 420K
20260429T06Z_MSC_RDPS_WindDir_IsbL-0030_RLatLon0.09_PT026H.grib2 2026-04-29 08:47 421K
20260429T06Z_MSC_RDPS_WindDir_IsbL-0050_RLatLon0.09_PT026H.grib2 2026-04-29 08:47 431K
20260429T06Z_MSC_RDPS_WindDir_IsbL-0100_RLatLon0.09_PT026H.grib2 2026-04-29 08:47 439K
20260429T06Z_MSC_RDPS_WindDir_IsbL-0150_RLatLon0.09_PT026H.grib2 2026-04-29 08:47 432K
20260429T06Z_MSC_RDPS_WindDir_IsbL-0175_RLatLon0.09_PT026H.grib2 2026-04-29 08:47 454K
20260429T06Z_MSC_RDPS_WindDir_IsbL-0200_RLatLon0.09_PT026H.grib2 2026-04-29 08:47 460K
20260429T06Z_MSC_RDPS_WindDir_IsbL-0225_RLatLon0.09_PT026H.grib2 2026-04-29 08:47 467K
20260429T06Z_MSC_RDPS_WindDir_IsbL-0250_RLatLon0.09_PT026H.grib2 2026-04-29 08:47 466K
20260429T06Z_MSC_RDPS_WindDir_IsbL-0275_RLatLon0.09_PT026H.grib2 2026-04-29 08:47 491K
20260429T06Z_MSC_RDPS_WindDir_IsbL-0300_RLatLon0.09_PT026H.grib2 2026-04-29 08:47 482K
20260429T06Z_MSC_RDPS_WindDir_IsbL-0350_RLatLon0.09_PT026H.grib2 2026-04-29 08:47 505K
20260429T06Z_MSC_RDPS_WindDir_IsbL-0400_RLatLon0.09_PT026H.grib2 2026-04-29 08:47 515K
20260429T06Z_MSC_RDPS_WindDir_IsbL-0450_RLatLon0.09_PT026H.grib2 2026-04-29 08:47 525K
20260429T06Z_MSC_RDPS_WindDir_IsbL-0500_RLatLon0.09_PT026H.grib2 2026-04-29 08:47 541K
20260429T06Z_MSC_RDPS_WindDir_IsbL-0550_RLatLon0.09_PT026H.grib2 2026-04-29 08:47 564K
20260429T06Z_MSC_RDPS_WindDir_IsbL-0600_RLatLon0.09_PT026H.grib2 2026-04-29 08:47 598K
20260429T06Z_MSC_RDPS_WindDir_IsbL-0650_RLatLon0.09_PT026H.grib2 2026-04-29 08:47 643K
20260429T06Z_MSC_RDPS_WindDir_IsbL-0700_RLatLon0.09_PT026H.grib2 2026-04-29 08:47 687K
20260429T06Z_MSC_RDPS_WindDir_IsbL-0750_RLatLon0.09_PT026H.grib2 2026-04-29 08:47 731K
20260429T06Z_MSC_RDPS_WindDir_IsbL-0800_RLatLon0.09_PT026H.grib2 2026-04-29 08:47 788K
20260429T06Z_MSC_RDPS_WindDir_IsbL-0850_RLatLon0.09_PT026H.grib2 2026-04-29 08:47 861K
20260429T06Z_MSC_RDPS_WindDir_IsbL-0875_RLatLon0.09_PT026H.grib2 2026-04-29 08:47 887K
20260429T06Z_MSC_RDPS_WindDir_IsbL-0900_RLatLon0.09_PT026H.grib2 2026-04-29 08:47 910K
20260429T06Z_MSC_RDPS_WindDir_IsbL-0925_RLatLon0.09_PT026H.grib2 2026-04-29 08:47 921K
20260429T06Z_MSC_RDPS_WindDir_IsbL-0950_RLatLon0.09_PT026H.grib2 2026-04-29 08:47 921K
20260429T06Z_MSC_RDPS_WindDir_IsbL-0970_RLatLon0.09_PT026H.grib2 2026-04-29 08:47 931K
20260429T06Z_MSC_RDPS_WindDir_IsbL-0985_RLatLon0.09_PT026H.grib2 2026-04-29 08:47 939K
20260429T06Z_MSC_RDPS_WindDir_IsbL-1000_RLatLon0.09_PT026H.grib2 2026-04-29 08:47 952K
20260429T06Z_MSC_RDPS_WindDir_IsbL-1015_RLatLon0.09_PT026H.grib2 2026-04-29 08:47 967K
20260429T06Z_MSC_RDPS_WindGust-Max_AGL-10m_RLatLon0.09_PT026H.grib2 2026-04-29 08:47 1.0M
20260429T06Z_MSC_RDPS_WindGust-Min_AGL-10m_RLatLon0.09_PT026H.grib2 2026-04-29 08:47 967K
20260429T06Z_MSC_RDPS_WindGust_AGL-10m_RLatLon0.09_PT026H.grib2 2026-04-29 08:47 1.0M
20260429T06Z_MSC_RDPS_WindSpeed_AGL-10m_RLatLon0.09_PT026H.grib2 2026-04-29 08:47 833K
20260429T06Z_MSC_RDPS_WindSpeed_AGL-120m_RLatLon0.09_PT026H.grib2 2026-04-29 08:47 537K
20260429T06Z_MSC_RDPS_WindSpeed_AGL-40m_RLatLon0.09_PT026H.grib2 2026-04-29 08:47 537K
20260429T06Z_MSC_RDPS_WindSpeed_AGL-80m_RLatLon0.09_PT026H.grib2 2026-04-29 08:47 537K
20260429T06Z_MSC_RDPS_WindSpeed_IsbL-0001_RLatLon0.09_PT026H.grib2 2026-04-29 08:47 253K
20260429T06Z_MSC_RDPS_WindSpeed_IsbL-0005_RLatLon0.09_PT026H.grib2 2026-04-29 08:47 388K
20260429T06Z_MSC_RDPS_WindSpeed_IsbL-0010_RLatLon0.09_PT026H.grib2 2026-04-29 08:47 405K
20260429T06Z_MSC_RDPS_WindSpeed_IsbL-0020_RLatLon0.09_PT026H.grib2 2026-04-29 08:47 326K
20260429T06Z_MSC_RDPS_WindSpeed_IsbL-0030_RLatLon0.09_PT026H.grib2 2026-04-29 08:47 326K
20260429T06Z_MSC_RDPS_WindSpeed_IsbL-0050_RLatLon0.09_PT026H.grib2 2026-04-29 08:47 354K
20260429T06Z_MSC_RDPS_WindSpeed_IsbL-0100_RLatLon0.09_PT026H.grib2 2026-04-29 08:47 485K
20260429T06Z_MSC_RDPS_WindSpeed_IsbL-0150_RLatLon0.09_PT026H.grib2 2026-04-29 08:47 388K
20260429T06Z_MSC_RDPS_WindSpeed_IsbL-0175_RLatLon0.09_PT026H.grib2 2026-04-29 08:47 434K
20260429T06Z_MSC_RDPS_WindSpeed_IsbL-0200_RLatLon0.09_PT026H.grib2 2026-04-29 08:47 450K
20260429T06Z_MSC_RDPS_WindSpeed_IsbL-0225_RLatLon0.09_PT026H.grib2 2026-04-29 08:47 458K
20260429T06Z_MSC_RDPS_WindSpeed_IsbL-0250_RLatLon0.09_PT026H.grib2 2026-04-29 08:47 461K
20260429T06Z_MSC_RDPS_WindSpeed_IsbL-0275_RLatLon0.09_PT026H.grib2 2026-04-29 08:47 479K
20260429T06Z_MSC_RDPS_WindSpeed_IsbL-0300_RLatLon0.09_PT026H.grib2 2026-04-29 08:47 473K
20260429T06Z_MSC_RDPS_WindSpeed_IsbL-0350_RLatLon0.09_PT026H.grib2 2026-04-29 08:47 484K
20260429T06Z_MSC_RDPS_WindSpeed_IsbL-0400_RLatLon0.09_PT026H.grib2 2026-04-29 08:47 467K
20260429T06Z_MSC_RDPS_WindSpeed_IsbL-0450_RLatLon0.09_PT026H.grib2 2026-04-29 08:47 467K
20260429T06Z_MSC_RDPS_WindSpeed_IsbL-0500_RLatLon0.09_PT026H.grib2 2026-04-29 08:47 468K
20260429T06Z_MSC_RDPS_WindSpeed_IsbL-0550_RLatLon0.09_PT026H.grib2 2026-04-29 08:47 468K
20260429T06Z_MSC_RDPS_WindSpeed_IsbL-0600_RLatLon0.09_PT026H.grib2 2026-04-29 08:47 595K
20260429T06Z_MSC_RDPS_WindSpeed_IsbL-0650_RLatLon0.09_PT026H.grib2 2026-04-29 08:47 615K
20260429T06Z_MSC_RDPS_WindSpeed_IsbL-0700_RLatLon0.09_PT026H.grib2 2026-04-29 08:47 683K
20260429T06Z_MSC_RDPS_WindSpeed_IsbL-0750_RLatLon0.09_PT026H.grib2 2026-04-29 08:47 712K
20260429T06Z_MSC_RDPS_WindSpeed_IsbL-0800_RLatLon0.09_PT026H.grib2 2026-04-29 08:47 753K
20260429T06Z_MSC_RDPS_WindSpeed_IsbL-0850_RLatLon0.09_PT026H.grib2 2026-04-29 08:47 808K
20260429T06Z_MSC_RDPS_WindSpeed_IsbL-0875_RLatLon0.09_PT026H.grib2 2026-04-29 08:47 828K
20260429T06Z_MSC_RDPS_WindSpeed_IsbL-0900_RLatLon0.09_PT026H.grib2 2026-04-29 08:47 845K
20260429T06Z_MSC_RDPS_WindSpeed_IsbL-0925_RLatLon0.09_PT026H.grib2 2026-04-29 08:47 858K
20260429T06Z_MSC_RDPS_WindSpeed_IsbL-0950_RLatLon0.09_PT026H.grib2 2026-04-29 08:47 859K
20260429T06Z_MSC_RDPS_WindSpeed_IsbL-0970_RLatLon0.09_PT026H.grib2 2026-04-29 08:47 859K
20260429T06Z_MSC_RDPS_WindSpeed_IsbL-0985_RLatLon0.09_PT026H.grib2 2026-04-29 08:47 849K
20260429T06Z_MSC_RDPS_WindSpeed_IsbL-1000_RLatLon0.09_PT026H.grib2 2026-04-29 08:47 842K
20260429T06Z_MSC_RDPS_WindSpeed_IsbL-1015_RLatLon0.09_PT026H.grib2 2026-04-29 08:47 833K
20260429T06Z_MSC_RDPS_WindU_AGL-10m_RLatLon0.09_PT026H.grib2 2026-04-29 08:47 427K
20260429T06Z_MSC_RDPS_WindU_AGL-120m_RLatLon0.09_PT026H.grib2 2026-04-29 08:47 533K
20260429T06Z_MSC_RDPS_WindU_AGL-40m_RLatLon0.09_PT026H.grib2 2026-04-29 08:47 535K
20260429T06Z_MSC_RDPS_WindU_AGL-80m_RLatLon0.09_PT026H.grib2 2026-04-29 08:47 534K
20260429T06Z_MSC_RDPS_WindU_IsbL-0001_RLatLon0.09_PT026H.grib2 2026-04-29 08:47 243K
20260429T06Z_MSC_RDPS_WindU_IsbL-0005_RLatLon0.09_PT026H.grib2 2026-04-29 08:47 290K
20260429T06Z_MSC_RDPS_WindU_IsbL-0010_RLatLon0.09_PT026H.grib2 2026-04-29 08:47 301K
20260429T06Z_MSC_RDPS_WindU_IsbL-0020_RLatLon0.09_PT026H.grib2 2026-04-29 08:47 353K
20260429T06Z_MSC_RDPS_WindU_IsbL-0030_RLatLon0.09_PT026H.grib2 2026-04-29 08:47 316K
20260429T06Z_MSC_RDPS_WindU_IsbL-0050_RLatLon0.09_PT026H.grib2 2026-04-29 08:47 380K
20260429T06Z_MSC_RDPS_WindU_IsbL-0100_RLatLon0.09_PT026H.grib2 2026-04-29 08:47 439K
20260429T06Z_MSC_RDPS_WindU_IsbL-0150_RLatLon0.09_PT026H.grib2 2026-04-29 08:47 402K
20260429T06Z_MSC_RDPS_WindU_IsbL-0175_RLatLon0.09_PT026H.grib2 2026-04-29 08:47 426K
20260429T06Z_MSC_RDPS_WindU_IsbL-0200_RLatLon0.09_PT026H.grib2 2026-04-29 08:47 342K
20260429T06Z_MSC_RDPS_WindU_IsbL-0225_RLatLon0.09_PT026H.grib2 2026-04-29 08:47 348K
20260429T06Z_MSC_RDPS_WindU_IsbL-0250_RLatLon0.09_PT026H.grib2 2026-04-29 08:47 350K
20260429T06Z_MSC_RDPS_WindU_IsbL-0275_RLatLon0.09_PT026H.grib2 2026-04-29 08:47 365K
20260429T06Z_MSC_RDPS_WindU_IsbL-0300_RLatLon0.09_PT026H.grib2 2026-04-29 08:47 359K
20260429T06Z_MSC_RDPS_WindU_IsbL-0350_RLatLon0.09_PT026H.grib2 2026-04-29 08:47 473K
20260429T06Z_MSC_RDPS_WindU_IsbL-0400_RLatLon0.09_PT026H.grib2 2026-04-29 08:47 472K
20260429T06Z_MSC_RDPS_WindU_IsbL-0450_RLatLon0.09_PT026H.grib2 2026-04-29 08:47 471K
20260429T06Z_MSC_RDPS_WindU_IsbL-0500_RLatLon0.09_PT026H.grib2 2026-04-29 08:47 473K
20260429T06Z_MSC_RDPS_WindU_IsbL-0550_RLatLon0.09_PT026H.grib2 2026-04-29 08:47 456K
20260429T06Z_MSC_RDPS_WindU_IsbL-0600_RLatLon0.09_PT026H.grib2 2026-04-29 08:47 465K
20260429T06Z_MSC_RDPS_WindU_IsbL-0650_RLatLon0.09_PT026H.grib2 2026-04-29 08:47 483K
20260429T06Z_MSC_RDPS_WindU_IsbL-0700_RLatLon0.09_PT026H.grib2 2026-04-29 08:47 506K
20260429T06Z_MSC_RDPS_WindU_IsbL-0750_RLatLon0.09_PT026H.grib2 2026-04-29 08:47 532K
20260429T06Z_MSC_RDPS_WindU_IsbL-0800_RLatLon0.09_PT026H.grib2 2026-04-29 08:47 568K
20260429T06Z_MSC_RDPS_WindU_IsbL-0850_RLatLon0.09_PT026H.grib2 2026-04-29 08:47 617K
20260429T06Z_MSC_RDPS_WindU_IsbL-0875_RLatLon0.09_PT026H.grib2 2026-04-29 08:47 634K
20260429T06Z_MSC_RDPS_WindU_IsbL-0900_RLatLon0.09_PT026H.grib2 2026-04-29 08:47 647K
20260429T06Z_MSC_RDPS_WindU_IsbL-0925_RLatLon0.09_PT026H.grib2 2026-04-29 08:47 655K
20260429T06Z_MSC_RDPS_WindU_IsbL-0950_RLatLon0.09_PT026H.grib2 2026-04-29 08:47 653K
20260429T06Z_MSC_RDPS_WindU_IsbL-0970_RLatLon0.09_PT026H.grib2 2026-04-29 08:47 651K
20260429T06Z_MSC_RDPS_WindU_IsbL-0985_RLatLon0.09_PT026H.grib2 2026-04-29 08:47 785K
20260429T06Z_MSC_RDPS_WindU_IsbL-1000_RLatLon0.09_PT026H.grib2 2026-04-29 08:47 779K
20260429T06Z_MSC_RDPS_WindU_IsbL-1015_RLatLon0.09_PT026H.grib2 2026-04-29 08:47 773K
20260429T06Z_MSC_RDPS_WindV_AGL-10m_RLatLon0.09_PT026H.grib2 2026-04-29 08:47 427K
20260429T06Z_MSC_RDPS_WindV_AGL-120m_RLatLon0.09_PT026H.grib2 2026-04-29 08:47 532K
20260429T06Z_MSC_RDPS_WindV_AGL-40m_RLatLon0.09_PT026H.grib2 2026-04-29 08:47 533K
20260429T06Z_MSC_RDPS_WindV_AGL-80m_RLatLon0.09_PT026H.grib2 2026-04-29 08:47 533K
20260429T06Z_MSC_RDPS_WindV_IsbL-0001_RLatLon0.09_PT026H.grib2 2026-04-29 08:47 245K
20260429T06Z_MSC_RDPS_WindV_IsbL-0005_RLatLon0.09_PT026H.grib2 2026-04-29 08:47 291K
20260429T06Z_MSC_RDPS_WindV_IsbL-0010_RLatLon0.09_PT026H.grib2 2026-04-29 08:47 304K
20260429T06Z_MSC_RDPS_WindV_IsbL-0020_RLatLon0.09_PT026H.grib2 2026-04-29 08:47 319K
20260429T06Z_MSC_RDPS_WindV_IsbL-0030_RLatLon0.09_PT026H.grib2 2026-04-29 08:47 320K
20260429T06Z_MSC_RDPS_WindV_IsbL-0050_RLatLon0.09_PT026H.grib2 2026-04-29 08:47 347K
20260429T06Z_MSC_RDPS_WindV_IsbL-0100_RLatLon0.09_PT026H.grib2 2026-04-29 08:47 435K
20260429T06Z_MSC_RDPS_WindV_IsbL-0150_RLatLon0.09_PT026H.grib2 2026-04-29 08:47 400K
20260429T06Z_MSC_RDPS_WindV_IsbL-0175_RLatLon0.09_PT026H.grib2 2026-04-29 08:47 424K
20260429T06Z_MSC_RDPS_WindV_IsbL-0200_RLatLon0.09_PT026H.grib2 2026-04-29 08:47 340K
20260429T06Z_MSC_RDPS_WindV_IsbL-0225_RLatLon0.09_PT026H.grib2 2026-04-29 08:47 346K
20260429T06Z_MSC_RDPS_WindV_IsbL-0250_RLatLon0.09_PT026H.grib2 2026-04-29 08:47 348K
20260429T06Z_MSC_RDPS_WindV_IsbL-0275_RLatLon0.09_PT026H.grib2 2026-04-29 08:47 386K
20260429T06Z_MSC_RDPS_WindV_IsbL-0300_RLatLon0.09_PT026H.grib2 2026-04-29 08:47 381K
20260429T06Z_MSC_RDPS_WindV_IsbL-0350_RLatLon0.09_PT026H.grib2 2026-04-29 08:47 366K
20260429T06Z_MSC_RDPS_WindV_IsbL-0400_RLatLon0.09_PT026H.grib2 2026-04-29 08:47 366K
20260429T06Z_MSC_RDPS_WindV_IsbL-0450_RLatLon0.09_PT026H.grib2 2026-04-29 08:47 470K
20260429T06Z_MSC_RDPS_WindV_IsbL-0500_RLatLon0.09_PT026H.grib2 2026-04-29 08:47 472K
20260429T06Z_MSC_RDPS_WindV_IsbL-0550_RLatLon0.09_PT026H.grib2 2026-04-29 08:47 472K
20260429T06Z_MSC_RDPS_WindV_IsbL-0600_RLatLon0.09_PT026H.grib2 2026-04-29 08:47 480K
20260429T06Z_MSC_RDPS_WindV_IsbL-0650_RLatLon0.09_PT026H.grib2 2026-04-29 08:47 482K
20260429T06Z_MSC_RDPS_WindV_IsbL-0700_RLatLon0.09_PT026H.grib2 2026-04-29 08:47 503K
20260429T06Z_MSC_RDPS_WindV_IsbL-0750_RLatLon0.09_PT026H.grib2 2026-04-29 08:47 527K
20260429T06Z_MSC_RDPS_WindV_IsbL-0800_RLatLon0.09_PT026H.grib2 2026-04-29 08:47 564K
20260429T06Z_MSC_RDPS_WindV_IsbL-0850_RLatLon0.09_PT026H.grib2 2026-04-29 08:47 614K
20260429T06Z_MSC_RDPS_WindV_IsbL-0875_RLatLon0.09_PT026H.grib2 2026-04-29 08:47 631K
20260429T06Z_MSC_RDPS_WindV_IsbL-0900_RLatLon0.09_PT026H.grib2 2026-04-29 08:47 645K
20260429T06Z_MSC_RDPS_WindV_IsbL-0925_RLatLon0.09_PT026H.grib2 2026-04-29 08:47 794K
20260429T06Z_MSC_RDPS_WindV_IsbL-0950_RLatLon0.09_PT026H.grib2 2026-04-29 08:47 792K
20260429T06Z_MSC_RDPS_WindV_IsbL-0970_RLatLon0.09_PT026H.grib2 2026-04-29 08:47 792K
20260429T06Z_MSC_RDPS_WindV_IsbL-0985_RLatLon0.09_PT026H.grib2 2026-04-29 08:47 832K
20260429T06Z_MSC_RDPS_WindV_IsbL-1000_RLatLon0.09_PT026H.grib2 2026-04-29 08:47 825K
20260429T06Z_MSC_RDPS_WindV_IsbL-1015_RLatLon0.09_PT026H.grib2 2026-04-29 08:47 817K